Miscellaneous Local Product
Issued by NWS Hastings, NE

Home | Current Version | Previous Version | Graphics & Text | Print | Product List | Glossary On
Versions: 1 2 3 4 5 6 7 8 9 10 11 12 13 14 15 16 17 18 19 20 21 22 23 24 25 26 27 28 29 30 31 32 33 34 35 36 37 38 39 40 41 42 43 44 45 46 47 48 49 50
000
AXUS43 KGID 230802
MISGRI

GID CWA HOURLY WEATHER ROUNDUP
NATIONAL WEATHER SERVICE HASTINGS NE
300 AM CDT WED APR 23 2014

NOTE: "FAIR" INDICATES FEW OR NO CLOUDS BELOW 12,000 FEET WITH NO
SIGNIFICANT WEATHER AND/OR OBSTRUCTIONS TO VISIBILITY.

...SOUTH CENTRAL NEBRASKA...

CITY           SKY/WX    TMP DP  RH WIND       PRES   REMARKS
GRAND ISLAND   MOCLDY    56  33  42 SE21G29   29.81F
HASTINGS       MOCLDY    57  32  38 SE18G28   29.79F
KEARNEY        MOCLDY    55  32  41 SE16      29.77F
ORD            MOCLDY    55  32  41 SE10      29.77F
YORK           PTCLDY    54  32  43 SE16      29.86F
AURORA         PTCLDY    56  33  42 SE18G25   29.84F
LEXINGTON      MOCLDY    58  34  40 SE16G22   29.72F
HOLDREGE       CLOUDY    57  34  41 SE21G26   29.76F
HEBRON         MOCLDY    57  32  39 SE12      29.86F

...NEBRASKA PANHANDLE...

CITY           SKY/WX    TMP DP  RH WIND       PRES   REMARKS
CHADRON        MOCLDY    62  43  49 S25G35    29.47F
ALLIANCE       CLOUDY    59  46  62 S21G29    29.55F
SCOTTSBLUFF    CLOUDY    58  42  55 SE14      29.54F
SIDNEY         CLOUDY    55  44  66 S14       29.59F

...WESTERN AND NORTH CENTRAL NEBRASKA...

CITY           SKY/WX    TMP DP  RH WIND       PRES   REMARKS
VALENTINE      MOCLDY    56  32  40 SE15      29.65F
AINSWORTH      PTCLDY    55  33  41 SE15      29.70F
ONEILL         MOCLDY    56  29  35 SE18G25   29.78F
BROKEN BOW     CLOUDY    53  33  46 SE13G23   29.73F
IMPERIAL       MOCLDY    60  45  57 S21G28    29.63F
NORTH PLATTE   MOCLDY    59  37  44 SE15G24   29.66F
MCCOOK         MOCLDY    60  36  40 S29G40    29.66F

...EASTERN NEBRASKA...

CITY           SKY/WX    TMP DP  RH WIND       PRES   REMARKS
NORFOLK        PTCLDY    54  34  46 SE18G25   29.85F
SO SIOUX CITY  CLOUDY    55  34  45 SE15      29.92F
TEKAMAH        MOCLDY    54  32  43 SE17      29.93F
COLUMBUS       CLEAR     55  32  41 SE13G18   29.88F
ALBION         PTCLDY    55  32  41 SE17G25   29.83F
OMAHA EPPLEY   MOCLDY    57  34  41 SE17      29.95F
OFFUTT AFB     MOCLDY    56  36  47 SE15      29.95F
MILLARD        CLOUDY    56  35  43 SE8       29.94F
LINCOLN        CLEAR     59  34  39 SE18G25   29.92F
NEBRASKA CITY  LGT RAIN  54  38  53 SE10      29.96F
BEATRICE       PTCLDY    57  33  39 SE15      29.91F
FALLS CITY     MOCLDY    51  37  58 E8        29.98R

...NORTHERN KANSAS...

CITY           SKY/WX    TMP DP  RH WIND       PRES   REMARKS
GOODLAND       PTCLDY    58  47  66 S26       29.68F
HILL CITY      CLOUDY    59  36  42 S20G29    29.74F
PHILLIPSBURG   PTCLDY    61  34  36 E16       29.78F
SMITH CENTER   CLOUDY    54  39  58 SE16      29.82F
BELOIT         CLOUDY    57  39  51 SE16G23   29.83F
HAYS           CLOUDY    57  32  38 SE17      29.79F
RUSSELL        CLOUDY    59  33  37 SE23G31   29.80F
CONCORDIA      CLOUDY    59  34  39 SE20      29.85F
SALINA         CLOUDY    59  33  37 SE12      29.90S
TOPEKA         CLOUDY    54  38  54 NW3       29.99R



USA.gov is the U.S. government's official web portal to all federal, state and local government web resources and services.